Voltar ao catálogo

COSMOS 1823 DEB

AtivoLEO
NORAD 18754·DEBRIS·🇷🇺 Russia

Lançado Feb 20, 1987 de Plesetsk Cosmodrome

Loading…

Próximas Passagens (próximas 24 horas)

TLE

AtualizadoSource: Space-Track

Época: Sep 14, 2026, 09:39 UTC

1 18754U 87020AF  26257.40208516  .00000080  00000-0  52399-3 0  9999
2 18754  73.6297 257.1093 0071709 115.2679 314.8793 12.64656275786171

Acompanhe COSMOS 1823 DEB em tempo real com AllMySat

Download on the App Store